Location: Unspecified
(49.2170°N, 0.0000°E)
Time: 10:49:38
(UTC+00:00)

S-56A Canister/Altair - Pass Details

Date: 24 January 2021
Orbit: 631 x 2501 km, 38.9° (Epoch: 05 March)

Event Time Altitude Azimuth Distance (km) Brightness Sun altitude
Exits shadow 05:10:48 24° 192° (SSW) 1,437 8.8 -24.3°
Maximum altitude 05:11:17 25° 183° (S) 1,442 8.9 -24.2°
Drops below altitude 10° 05:15:45 10° 129° (SE) 2,486 10.8 -23.5°
Sets 05:19:05 0° 117° (ESE) 3,692 12.1 -22.9°
